Weather History for Phuket, Thailand

Change the Weather History Date:

Sunday, May 11, 2014

  Actual Average Record
Temperature  
Mean Temperature 82 °F -  
Max Temperature 90 °F 89 °F 100 °F (1998)
Min Temperature 73 °F 78 °F 73 °F (2014)
Cooling Degree Days 16    
Growing Degree Days 32 (Base 50)    
Moisture  
Dew Point 76 °F    
Average Humidity 78    
Maximum Humidity 96    
Minimum Humidity 62    
Precipitation  
Precipitation 0.00 in 0.42 in - ()
Sea Level Pressure  
Sea Level Pressure 29.84 in    
Wind  
Wind Speed 3 mph ()    
Max Wind Speed 13 mph    
Max Gust Speed -    
Visibility 5.4 miles    
Events Rain , Thunderstorm    
Averages and records for this station are not official NWS values.
T = Trace of Precipitation, MM = Missing Value Source: Averaged Metar Reports

Daily Weather History Graph

Daily Weather History Graph

Search for Another Location

Airport:

Trip Planner

Search our weather history database for the weather conditions in past years. The results will help you decide how hot, cold, wet, or windy it might be!

Date:

Astronomy

May. 11, 2014 Rise Set
Actual Time 6:09 AM ICT 6:37 PM ICT
Civil Twilight 5:47 AM ICT 6:59 PM ICT
Nautical Twilight 5:21 AM ICT 7:25 PM ICT
Astronomical Twilight 4:55 AM ICT 7:51 PM ICT
Moon 3:40 PM ICT (5/11) 3:12 AM ICT (5/11)
Length of Visible Light 13h 12m
Length of Day
12h 28m
Waxing Gibbous, 86% of the Moon is Illuminated
May 11
Waxing Gibbous
May 15
Full
May 21
Last Quarter
May 29
New
Jun 6
First Quarter

Hourly Weather History & Observations

Time (ICT) Temp. Heat Index Dew Point Humidity Pressure Visibility Wind Dir Wind Speed Gust Speed Precip Events Conditions
12:00 AM 78.8 °F - 77.0 °F 94% 29.89 in 5.6 mi Calm Calm - N/A   Mostly Cloudy
12:30 AM 78.8 °F - 77.0 °F 94% 29.89 in 5.6 mi East 4.6 mph - N/A   Mostly Cloudy
1:00 AM 80 °F - 78 °F 93% 29.84 in 6 mi Calm Calm - -   Scattered Clouds
1:00 AM 78.8 °F - 77.0 °F 94% 29.86 in 5.6 mi Variable 2.3 mph - N/A   Mostly Cloudy
1:30 AM 78.8 °F - 75.2 °F 89% 29.86 in 5.6 mi Variable 2.3 mph - N/A   Mostly Cloudy
2:00 AM 78.8 °F - 75.2 °F 89% 29.83 in 5.6 mi Variable 2.3 mph - N/A   Mostly Cloudy
2:30 AM 78.8 °F - 75.2 °F 89% 29.83 in 5.6 mi Variable 2.3 mph - N/A   Mostly Cloudy
3:00 AM 78.8 °F - 75.2 °F 89% 29.83 in 5.6 mi Variable 2.3 mph - N/A   Mostly Cloudy
3:30 AM 78.8 °F - 75.2 °F 89% 29.83 in 5.6 mi Variable 2.3 mph - N/A   Mostly Cloudy
4:00 AM 80 °F - 78 °F 91% 29.78 in 6 mi Calm Calm - -   Scattered Clouds
4:00 AM 78.8 °F - 75.2 °F 89% 29.83 in 5.6 mi Variable 1.2 mph - N/A   Mostly Cloudy
4:30 AM 78.8 °F - 75.2 °F 89% 29.83 in 5.6 mi Variable 1.2 mph - N/A   Mostly Cloudy
5:00 AM 78.8 °F - 75.2 °F 89% 29.83 in 5.6 mi Variable 1.2 mph - N/A   Mostly Cloudy
5:30 AM 78.8 °F - 75.2 °F 89% 29.86 in 5.6 mi Variable 1.2 mph - N/A   Mostly Cloudy
6:00 AM 78.8 °F - 75.2 °F 89% 29.86 in 5.6 mi Variable 1.2 mph - N/A   Mostly Cloudy
6:30 AM 78.8 °F - 75.2 °F 89% 29.86 in 5.6 mi Variable 1.2 mph - N/A   Mostly Cloudy
7:00 AM 79 °F - 78 °F 96% 29.82 in 6 mi Calm Calm - -   Scattered Clouds
7:00 AM 78.8 °F - 77.0 °F 94% 29.89 in 5.6 mi Variable 2.3 mph - N/A   Mostly Cloudy
7:30 AM 80.6 °F 87.1 °F 77.0 °F 89% 29.89 in 5.6 mi Variable 2.3 mph - N/A   Mostly Cloudy
8:00 AM 84.2 °F 94.1 °F 77.0 °F 79% 29.89 in 5.6 mi Variable 2.3 mph - N/A   Mostly Cloudy
8:30 AM 86.0 °F 96.9 °F 77.0 °F 74% 29.89 in 5.6 mi Variable 2.3 mph - N/A   Mostly Cloudy
9:00 AM 86.0 °F 96.9 °F 77.0 °F 74% 29.92 in 5.6 mi Variable 2.3 mph - N/A   Mostly Cloudy
9:30 AM 86.0 °F 96.9 °F 77.0 °F 74% 29.92 in 5.6 mi Variable 3.5 mph - N/A   Mostly Cloudy
10:00 AM 88 °F - 78 °F 65% 29.87 in 6 mi Calm Calm - -   Partly Cloudy
10:00 AM 86.0 °F 95.1 °F 75.2 °F 70% 29.92 in 5.0 mi ESE 3.5 mph - N/A   Mostly Cloudy
10:30 AM 87.8 °F 99.7 °F 77.0 °F 70% 29.89 in 5.6 mi Variable 2.3 mph - N/A   Mostly Cloudy
11:00 AM 87.8 °F 99.7 °F 77.0 °F 70% 29.89 in 5.6 mi Variable 2.3 mph - N/A   Mostly Cloudy
11:30 AM 87.8 °F 99.7 °F 77.0 °F 70% 29.89 in 5.6 mi West 10.4 mph - N/A   Mostly Cloudy
12:00 PM 82.4 °F 92.4 °F 78.8 °F 89% 29.89 in 3.1 mi Variable 4.6 mph - N/A Rain Rain
12:30 PM 84.2 °F 96.1 °F 78.8 °F 84% 29.86 in 4.3 mi ESE 4.6 mph - N/A   Mostly Cloudy
1:00 PM 88 °F - 79 °F 68% 29.83 in 6 mi West 3.5 mph - - Thunderstorm Thunderstorm
1:00 PM 87.8 °F 99.7 °F 77.0 °F 70% 29.86 in 4.3 mi West 4.6 mph - N/A Thunderstorm Thunderstorm
1:30 PM 91.4 °F 107.2 °F 78.8 °F 66% 29.83 in 5.0 mi Variable 6.9 mph - N/A   Mostly Cloudy
2:00 PM 89.6 °F 102.2 °F 77.0 °F 66% 29.83 in 5.6 mi West 11.5 mph - N/A   Mostly Cloudy
2:30 PM 89.6 °F 102.2 °F 77.0 °F 66% 29.80 in 5.6 mi West 12.7 mph - N/A   Mostly Cloudy
3:00 PM 89.6 °F 99.8 °F 75.2 °F 62% 29.80 in 5.6 mi WSW 9.2 mph - N/A Thunderstorm Thunderstorm
3:30 PM 87.8 °F 97.6 °F 75.2 °F 66% 29.77 in 5.6 mi West 10.4 mph - N/A   Mostly Cloudy
4:00 PM 89 °F - 78 °F 64% 29.73 in 6 mi West 8.1 mph - -   Scattered Clouds
4:00 PM 87.8 °F 99.7 °F 77.0 °F 70% 29.77 in 5.6 mi WSW 8.1 mph - N/A   Mostly Cloudy
4:30 PM 87.8 °F 97.6 °F 75.2 °F 66% 29.77 in 5.6 mi West 10.4 mph - N/A   Mostly Cloudy
5:00 PM 87.8 °F 99.7 °F 77.0 °F 70% 29.77 in 5.6 mi West 10.4 mph - N/A   Mostly Cloudy
5:30 PM 87.8 °F 97.6 °F 75.2 °F 66% 29.80 in 5.6 mi West 9.2 mph - N/A   Mostly Cloudy
6:00 PM 86.0 °F 95.1 °F 75.2 °F 70% 29.80 in 5.6 mi West 6.9 mph - N/A   Mostly Cloudy
6:30 PM 86.0 °F 95.1 °F 75.2 °F 70% 29.77 in 5.0 mi West 6.9 mph - N/A   Mostly Cloudy
7:00 PM 87 °F - 78 °F 70% 29.75 in 5 mi Calm Calm - -   Mist
7:30 PM 84.2 °F 92.3 °F 75.2 °F 74% 29.80 in 5.0 mi West 5.8 mph - N/A   Mostly Cloudy
8:00 PM 82.4 °F 90.9 °F 77.0 °F 84% 29.80 in 5.6 mi Variable 2.3 mph - N/A   Mostly Cloudy
8:30 PM 86.0 °F 96.9 °F 77.0 °F 74% 29.83 in 5.0 mi WNW 11.5 mph - N/A   Mostly Cloudy
9:00 PM 86.0 °F 96.9 °F 77.0 °F 74% 29.86 in 5.0 mi West 11.5 mph - N/A   Mostly Cloudy
9:30 PM 86.0 °F 96.9 °F 77.0 °F 74% 29.86 in 5.0 mi West 6.9 mph - N/A   Mostly Cloudy
10:00 PM 86 °F - 76 °F 66% 29.83 in 5 mi West 5.8 mph - -   Mist
10:00 PM 86.0 °F 95.1 °F 75.2 °F 70% 29.89 in 5.0 mi WNW 9.2 mph - N/A   Mostly Cloudy
10:30 PM 84.2 °F 92.3 °F 75.2 °F 74% 29.89 in 5.0 mi West 6.9 mph - N/A   Mostly Cloudy
11:00 PM 86.0 °F 95.1 °F 75.2 °F 70% 29.89 in 5.0 mi WNW 4.6 mph - N/A   Mostly Cloudy
11:30 PM 82.4 °F 89.5 °F 75.2 °F 79% 29.89 in 5.0 mi Calm Calm - N/A   Mostly Cloudy